Time,TemperatureF,DewpointF,PressureIn,WindDirection,WindDirectionDegrees,WindSpeedMPH,WindSpeedGustMPH,Humidity,HourlyPrecipIn,Conditions,Clouds,dailyrainin,SoftwareType,DateUTC
2013-08-13 00:09:00,66.7,66.1,29.81,NE,45,0.0,-999.0,98,-99.99,,,0.00,Acu-Link.com,2013-08-13 04:09:00,
2013-08-13 00:24:00,66.6,66.0,29.80,NW,315,0.0,-999.0,98,-99.99,,,0.00,Acu-Link.com,2013-08-13 04:24:00,
2013-08-13 00:39:00,66.4,65.8,29.79,WNW,292,0.0,-999.0,98,-99.99,,,0.00,Acu-Link.com,2013-08-13 04:39:00,
2013-08-13 00:54:00,66.4,65.8,29.79,NE,45,0.0,-999.0,98,-99.99,,,0.00,Acu-Link.com,2013-08-13 04:54:00,
2013-08-13 01:10:00,66.4,65.8,29.79,ESE,112,0.0,-999.0,98,-99.99,,,0.00,Acu-Link.com,2013-08-13 05:10:00,
2013-08-13 01:25:00,66.4,65.8,29.79,East,90,0.0,-999.0,98,-99.99,,,0.00,Acu-Link.com,2013-08-13 05:25:00,
2013-08-13 01:40:00,66.4,65.8,29.78,East,90,0.0,-999.0,98,-99.99,,,0.00,Acu-Link.com,2013-08-13 05:40:00,
2013-08-13 01:55:00,66.2,65.6,29.78,West,270,0.0,-999.0,98,-99.99,,,0.00,Acu-Link.com,2013-08-13 05:55:00,
2013-08-13 02:10:00,66.0,65.4,29.77,NNE,22,0.0,-999.0,98,-99.99,,,0.00,Acu-Link.com,2013-08-13 06:10:00,
2013-08-13 02:25:00,66.2,65.6,29.77,ESE,112,0.0,-999.0,98,-99.99,,,0.00,Acu-Link.com,2013-08-13 06:25:00,
2013-08-13 02:41:00,66.4,65.8,29.77,ENE,67,0.0,-999.0,98,-99.99,,,0.00,Acu-Link.com,2013-08-13 06:41:00,
2013-08-13 02:56:00,66.4,65.8,29.77,NE,45,0.0,-999.0,98,-99.99,,,0.00,Acu-Link.com,2013-08-13 06:56:00,
2013-08-13 03:11:00,66.4,65.8,29.77,SSE,157,0.0,-999.0,98,-99.99,,,0.00,Acu-Link.com,2013-08-13 07:11:00,
2013-08-13 03:26:00,67.8,67.2,29.77,SSE,157,0.0,-999.0,98,-99.99,,,0.00,Acu-Link.com,2013-08-13 07:26:00,
2013-08-13 03:41:00,66.7,66.1,29.76,NE,45,0.0,-999.0,98,-99.99,,,0.00,Acu-Link.com,2013-08-13 07:41:00,
2013-08-13 03:57:00,66.9,66.3,29.75,ESE,112,0.0,-999.0,98,-99.99,,,0.00,Acu-Link.com,2013-08-13 07:57:00,
2013-08-13 04:12:00,66.7,66.1,29.75,ENE,67,0.0,-999.0,98,-99.99,,,0.00,Acu-Link.com,2013-08-13 08:12:00,
2013-08-13 04:28:00,66.7,66.1,29.75,SSE,157,0.0,-999.0,98,-99.99,,,0.00,Acu-Link.com,2013-08-13 08:28:00,
2013-08-13 04:43:00,66.7,66.1,29.75,ESE,112,0.0,-999.0,98,-99.99,,,0.00,Acu-Link.com,2013-08-13 08:43:00,
2013-08-13 04:58:00,66.9,66.3,29.75,ENE,67,0.0,-999.0,98,-99.99,,,0.00,Acu-Link.com,2013-08-13 08:58:00,
2013-08-13 05:13:00,66.9,66.3,29.74,SSE,157,0.0,-999.0,98,-99.99,,,0.00,Acu-Link.com,2013-08-13 09:13:00,
2013-08-13 05:28:00,67.3,66.7,29.75,East,90,0.0,-999.0,98,-99.99,,,0.00,Acu-Link.com,2013-08-13 09:28:00,
2013-08-13 05:43:00,67.3,66.7,29.73,NW,315,0.0,-999.0,98,-99.99,,,0.00,Acu-Link.com,2013-08-13 09:43:00,
2013-08-13 05:59:00,67.5,66.9,29.73,ESE,112,0.0,-999.0,98,-99.99,,,0.00,Acu-Link.com,2013-08-13 09:59:00,
2013-08-13 06:14:00,67.5,66.9,29.74,SSE,157,0.0,-999.0,98,-99.99,,,0.00,Acu-Link.com,2013-08-13 10:14:00,
2013-08-13 06:29:00,66.9,66.3,29.75,SW,225,0.0,-999.0,98,-99.99,,,0.00,Acu-Link.com,2013-08-13 10:29:00,
2013-08-13 06:44:00,66.6,66.0,29.74,SSE,157,0.0,-999.0,98,-99.99,,,0.00,Acu-Link.com,2013-08-13 10:44:00,
2013-08-13 06:59:00,66.6,66.0,29.73,SSW,202,0.0,-999.0,98,-99.99,,,0.00,Acu-Link.com,2013-08-13 10:59:00,
2013-08-13 07:15:00,66.7,66.1,29.74,East,90,0.0,-999.0,98,-99.99,,,0.01,Acu-Link.com,2013-08-13 11:15:00,
2013-08-13 07:30:00,66.9,66.3,29.74,SE,135,0.0,-999.0,98,-99.99,,,0.01,Acu-Link.com,2013-08-13 11:30:00,
2013-08-13 07:45:00,67.3,66.7,29.73,ENE,67,0.0,-999.0,98,-99.99,,,0.01,Acu-Link.com,2013-08-13 11:45:00,
2013-08-13 08:00:00,68.7,68.1,29.74,SE,135,0.0,-999.0,98,-99.99,,,0.01,Acu-Link.com,2013-08-13 12:00:00,
2013-08-13 08:15:00,69.8,69.2,29.75,SSE,157,2.2,-999.0,98,-99.99,,,0.01,Acu-Link.com,2013-08-13 12:15:00,
2013-08-13 08:31:00,71.1,70.5,29.76,East,90,0.0,-999.0,98,-99.99,,,0.01,Acu-Link.com,2013-08-13 12:31:00,
2013-08-13 08:46:00,71.8,71.2,29.76,SE,135,3.7,-999.0,98,-99.99,,,0.01,Acu-Link.com,2013-08-13 12:46:00,
2013-08-13 09:01:00,71.6,71.0,29.77,SE,135,1.7,-999.0,98,-99.99,,,0.01,Acu-Link.com,2013-08-13 13:01:00,
2013-08-13 09:16:00,70.9,70.3,29.77,SW,225,0.0,-999.0,98,-99.99,,,0.01,Acu-Link.com,2013-08-13 13:16:00,
2013-08-13 09:31:00,71.2,70.6,29.77,ESE,112,1.1,-999.0,98,-99.99,,,0.02,Acu-Link.com,2013-08-13 13:31:00,
2013-08-13 09:47:00,71.1,70.5,29.77,SSE,157,1.7,-999.0,98,-99.99,,,0.03,Acu-Link.com,2013-08-13 13:47:00,
2013-08-13 10:02:00,71.6,71.0,29.75,South,180,0.0,-999.0,98,-99.99,,,0.03,Acu-Link.com,2013-08-13 14:02:00,
2013-08-13 10:17:00,72.3,71.7,29.75,SE,135,0.0,-999.0,98,-99.99,,,0.03,Acu-Link.com,2013-08-13 14:17:00,
2013-08-13 10:32:00,73.6,73.0,29.76,SSE,157,1.7,-999.0,98,-99.99,,,0.03,Acu-Link.com,2013-08-13 14:32:00,
2013-08-13 11:13:00,73.4,72.8,29.77,ESE,112,0.0,-999.0,98,-99.99,,,0.03,Acu-Link.com,2013-08-13 15:13:00,
2013-08-13 11:29:00,72.5,71.9,29.78,East,90,2.7,-999.0,98,-99.99,,,0.04,Acu-Link.com,2013-08-13 15:29:00,
2013-08-13 11:44:00,73.2,72.6,29.77,SE,135,0.0,-999.0,98,-99.99,,,0.07,Acu-Link.com,2013-08-13 15:44:00,
2013-08-13 12:01:00,73.8,73.2,29.77,NE,45,0.0,-999.0,98,-99.99,,,0.09,Acu-Link.com,2013-08-13 16:01:00,
2013-08-13 12:16:00,75.0,74.4,29.76,South,180,1.7,-999.0,98,-99.99,,,0.09,Acu-Link.com,2013-08-13 16:16:00,
2013-08-13 12:34:00,75.9,75.3,29.75,South,180,0.0,-999.0,98,-99.99,,,0.09,Acu-Link.com,2013-08-13 16:34:00,
2013-08-13 12:50:00,77.5,76.9,29.75,ESE,112,0.0,-999.0,98,-99.99,,,0.09,Acu-Link.com,2013-08-13 16:50:00,
2013-08-13 13:05:00,76.8,76.2,29.74,NNE,22,1.7,-999.0,98,-99.99,,,0.09,Acu-Link.com,2013-08-13 17:05:00,
2013-08-13 13:21:00,77.2,76.6,29.73,South,180,2.7,-999.0,98,-99.99,,,0.09,Acu-Link.com,2013-08-13 17:21:00,
2013-08-13 13:36:00,77.9,77.3,29.72,SW,225,1.7,-999.0,98,-99.99,,,0.09,Acu-Link.com,2013-08-13 17:36:00,
2013-08-13 13:51:00,78.6,78.0,29.72,SSW,202,2.2,-999.0,98,-99.99,,,0.09,Acu-Link.com,2013-08-13 17:51:00,
2013-08-13 14:06:00,80.2,79.6,29.71,ESE,112,2.2,-999.0,98,-99.99,,,0.09,Acu-Link.com,2013-08-13 18:06:00,
2013-08-13 14:21:00,80.2,79.6,29.71,SE,135,1.7,-999.0,98,-99.99,,,0.09,Acu-Link.com,2013-08-13 18:21:00,
2013-08-13 14:36:00,81.7,81.1,29.71,ESE,112,1.7,-999.0,98,-99.99,,,0.09,Acu-Link.com,2013-08-13 18:36:00,
2013-08-13 14:52:00,82.8,82.2,29.71,SSE,157,0.0,-999.0,98,-99.99,,,0.09,Acu-Link.com,2013-08-13 18:52:00,
2013-08-13 15:07:00,82.0,81.4,29.70,ESE,112,1.1,-999.0,98,-99.99,,,0.09,Acu-Link.com,2013-08-13 19:07:00,
2013-08-13 15:23:00,82.0,81.4,29.68,SSE,157,0.0,-999.0,98,-99.99,,,0.09,Acu-Link.com,2013-08-13 19:23:00,
2013-08-13 15:38:00,85.5,84.9,29.68,ENE,67,1.1,-999.0,98,-99.99,,,0.09,Acu-Link.com,2013-08-13 19:38:00,
2013-08-13 15:53:00,84.2,83.6,29.68,ESE,112,2.7,-999.0,98,-99.99,,,0.09,Acu-Link.com,2013-08-13 19:53:00,
2013-08-13 16:08:00,84.9,84.3,29.66,ENE,67,1.7,-999.0,98,-99.99,,,0.09,Acu-Link.com,2013-08-13 20:08:00,
2013-08-13 16:24:00,85.5,84.9,29.66,South,180,0.0,-999.0,98,-99.99,,,0.09,Acu-Link.com,2013-08-13 20:24:00,
2013-08-13 16:39:00,85.5,84.9,29.65,South,180,0.0,-999.0,98,-99.99,,,0.09,Acu-Link.com,2013-08-13 20:39:00,
2013-08-13 16:54:00,82.0,81.4,29.66,SE,135,2.2,-999.0,98,-99.99,,,0.09,Acu-Link.com,2013-08-13 20:54:00,
2013-08-13 17:09:00,82.0,81.4,29.66,NW,315,1.7,-999.0,98,-99.99,,,0.09,Acu-Link.com,2013-08-13 21:09:00,
2013-08-13 17:24:00,80.4,79.8,29.66,ESE,112,2.2,-999.0,98,-99.99,,,0.09,Acu-Link.com,2013-08-13 21:24:00,
2013-08-13 17:40:00,81.3,80.7,29.66,ENE,67,0.0,-999.0,98,-99.99,,,0.09,Acu-Link.com,2013-08-13 21:40:00,
2013-08-13 17:55:00,81.5,80.9,29.67,ENE,67,1.1,-999.0,98,-99.99,,,0.09,Acu-Link.com,2013-08-13 21:55:00,
2013-08-13 18:10:00,80.2,79.6,29.65,SE,135,3.2,-999.0,98,-99.99,,,0.09,Acu-Link.com,2013-08-13 22:10:00,
2013-08-13 18:25:00,79.3,78.7,29.65,SSE,157,2.7,-999.0,98,-99.99,,,0.09,Acu-Link.com,2013-08-13 22:25:00,
2013-08-13 18:41:00,77.9,77.3,29.65,ENE,67,1.7,-999.0,98,-99.99,,,0.09,Acu-Link.com,2013-08-13 22:41:00,
2013-08-13 18:56:00,76.5,75.9,29.66,WSW,247,3.7,-999.0,98,-99.99,,,0.09,Acu-Link.com,2013-08-13 22:56:00,
2013-08-13 19:11:00,74.5,73.9,29.65,ESE,112,1.7,-999.0,98,-99.99,,,0.09,Acu-Link.com,2013-08-13 23:11:00,
2013-08-13 19:26:00,73.8,73.2,29.67,NE,45,4.7,-999.0,98,-99.99,,,0.09,Acu-Link.com,2013-08-13 23:26:00,
2013-08-13 19:41:00,73.0,72.4,29.68,SE,135,1.7,-999.0,98,-99.99,,,0.09,Acu-Link.com,2013-08-13 23:41:00,
2013-08-13 19:57:00,72.5,71.9,29.68,ESE,112,1.7,-999.0,98,-99.99,,,0.09,Acu-Link.com,2013-08-13 23:57:00,
2013-08-13 20:12:00,72.1,71.5,29.70,SW,225,1.7,-999.0,98,-99.99,,,0.09,Acu-Link.com,2013-08-14 00:12:00,
2013-08-13 20:27:00,72.1,71.5,29.69,ESE,112,1.7,-999.0,98,-99.99,,,0.09,Acu-Link.com,2013-08-14 00:27:00,
2013-08-13 20:42:00,71.8,71.2,29.69,SSE,157,1.1,-999.0,98,-99.99,,,0.09,Acu-Link.com,2013-08-14 00:42:00,
2013-08-13 20:57:00,71.2,70.6,29.70,West,270,1.1,-999.0,98,-99.99,,,0.09,Acu-Link.com,2013-08-14 00:57:00,
2013-08-13 21:13:00,71.1,70.5,29.69,WSW,247,0.0,-999.0,98,-99.99,,,0.09,Acu-Link.com,2013-08-14 01:13:00,
2013-08-13 21:28:00,70.5,69.9,29.70,ESE,112,1.7,-999.0,98,-99.99,,,0.09,Acu-Link.com,2013-08-14 01:28:00,
2013-08-13 21:43:00,70.5,69.9,29.71,South,180,0.0,-999.0,98,-99.99,,,0.09,Acu-Link.com,2013-08-14 01:43:00,
2013-08-13 21:58:00,70.2,69.6,29.71,SSW,202,1.7,-999.0,98,-99.99,,,0.09,Acu-Link.com,2013-08-14 01:58:00,
2013-08-13 22:13:00,70.2,69.6,29.72,ESE,112,0.0,-999.0,98,-99.99,,,0.09,Acu-Link.com,2013-08-14 02:13:00,
2013-08-13 22:28:00,69.8,69.2,29.72,SSE,157,0.0,-999.0,98,-99.99,,,0.09,Acu-Link.com,2013-08-14 02:28:00,
2013-08-13 22:43:00,69.4,68.8,29.72,ESE,112,0.0,-999.0,98,-99.99,,,0.09,Acu-Link.com,2013-08-14 02:43:00,
2013-08-13 22:58:00,69.3,68.7,29.72,SSE,157,0.0,-999.0,98,-99.99,,,0.09,Acu-Link.com,2013-08-14 02:58:00,
2013-08-13 23:14:00,68.5,67.9,29.72,North,0,0.0,-999.0,98,-99.99,,,0.09,Acu-Link.com,2013-08-14 03:14:00,
2013-08-13 23:29:00,67.8,67.2,29.72,North,0,0.0,-999.0,98,-99.99,,,0.09,Acu-Link.com,2013-08-14 03:29:00,
2013-08-13 23:44:00,67.8,67.2,29.73,North,0,0.0,-999.0,98,-99.99,,,0.09,Acu-Link.com,2013-08-14 03:44:00,
2013-08-13 23:59:00,67.8,67.2,29.73,North,0,0.0,-999.0,98,-99.99,,,0.09,Acu-Link.com,2013-08-14 03:59:00,